Regional Weather Roundup
Issued by NWS Newport/Morehead, NC

Current Version | Previous Version | Graphics & Text | Print | Product List | Glossary Off
Versions: 1 2 3 4 5 6 7 8 9 10 11 12 13 14 15 16 17 18 19 20 21 22 23 24 25 26 27 28 29 30 31 32 33 34 35 36 37 38 39 40 41 42 43 44 45 46 47 48 49 50

000
ASUS42 KMHX 251325
RWRMHX
WEATHER ROUNDUP FOR EASTERN NORTH CAROLINA
NATIONAL WEATHER SERVICE NEWPORT/MOREHEAD CITY NC
900 AM EDT SAT MAR 25 2017

NOTE: "FAIR" INDICATES FEW OR NO CLOUDS BELOW 12,000 FEET
WITH NO SIGNIFICANT WEATHER AND/OR OBSTRUCTIONS TO VISIBILITY

NCZ015>017-031-032-045>047-102-103-251400-
NORTH COAST

CITY           SKY/WX    TMP DP  RH WIND       PRES   REMARKS
EDENTON        SUNNY     59  51  74 SW6       30.35R
ELIZABETH CITY SUNNY     60  51  72 SW10      30.34R
KITTY HAWK     NOT AVBL
MANTEO         SUNNY     57  51  79 SW5       30.35S

$$

NCZ045>047-081-094-103-104-251400-
CENTRAL COAST

CITY           SKY/WX    TMP DP  RH WIND       PRES   REMARKS
FRISCO         SUNNY     67  53  61 W8        30.37R

$$

NCZ095-097-098-100-101-251400-
SOUTHERN COAST

CITY           SKY/WX    TMP DP  RH WIND       PRES   REMARKS
BEAUFORT       MOSUNNY   66  55  67 SW6       30.36R
CEDAR ISLAND   NOT AVBL
JACKSONVILLE   SUNNY     65  54  67 VRB3      30.35R
PINEY ISLAND   SUNNY    N/A N/A N/A SW8       30.36R
WILMINGTON     CLOUDY    63  55  75 CALM      30.36R


$$

NCZ011>013-027>030-043-044-078>080-089-090>093-098-251400-
COASTAL PLAIN

CITY           SKY/WX    TMP DP  RH WIND       PRES   REMARKS
AHOSKIE          N/A     57  52  81 SW3       30.33R
CLINTON        MOSUNNY   57  54  88 CALM      30.37R
ELIZABETHTOWN  PTSUNNY   57  54  88 CALM      30.36R
GOLDSBORO      SUNNY     59  56  91 SW5       30.34R
GREENVILLE     CLOUDY    59  52  77 SW6       30.35S
HAVELOCK       SUNNY     62  54  74 SW3       30.37R
KENANSVILLE    MOSUNNY   59  52  77 SW6       30.37R
KINSTON        MOSUNNY   61  52  72 SW6       30.36R
NEW BERN       SUNNY     62  53  72 SW5       30.37R
RICHLANDS      NOT AVBL
ROCKY MOUNT    SUNNY     58  53  84 S6        30.35R
WASHINGTON     SUNNY     59  51  73 SW8       30.36R
WHITEVILLE     CLOUDY    60  55  83 CALM      30.35R

$$

AMZ130-135-150-152-154-156-158-170-250-252-270-ANZ085-086-088-633-658-670-251400-
MARINE OBSERVATIONS

STATION/POSITION TIME  TEMP    WIND        PRES    WAVE   SWELL
                       AIR SEA DIR/SP/G            HT/PER HT/PER
                 (UTC) (F)     (DEG/KT/KT) (MB)    (FT/S) (FT/S)
CHESAPEAKE LIGHT NOT AVBL
64 E VA BEACH    1250   53 50  210/ 12/ 16 1026.9    3/ 6   2/ 6
DUCK             1300   58 47  230/ 10/ 12 1026.8
2 E DUCK         1300      48                N/A     2/ 9
OREGON INLET     1300   56 55  220/  8/  9 1027.8
13E OREGON INLT  NOT AVBL
HATTERAS CG      1300   63 55  250/  6/  9 1028.0
DIAMOND BUOY     1250   69 76  260/ 14/ 17 1028.1    4/ 5   2/ 9
CAPE LOOKOUT     1300   67     240/  6/  8 1028.0
BEAUFORT LAB     1300   66 52  210/  4/  5 1027.3
30 SE NEW RVR IN 1308   67     210/  6/  8 1028.4
30 SE NEW RVR IN 1313      64                N/A     3/ 6   2/11
27 SE WRIGHTSVLE 1308   65 62  160/  4/  6 1027.5
5 SE WRIGHTSVLE  1308   61 56   CALM  /  2 1028.0
225 S CAPE HAT   1250   65 73   90/ 12/ 16 1028.9    5/ 8   3/ 8
41 SE CHARLESTON 1250   69 70  150/  6/  6 1027.4    4/ 7   5/ 7

$$



USA.gov is the U.S. government's official web portal to all federal, state and local government web resources and services.